| time (UTC) | temp F | wind direction | speed MPH | gust MPH | rain 1hr in | rain 24hr in | rain mn in | humidity % | barometer mb |
| 20260509131602 | 53 | 86 | 3.0 | 9.0 | 0.00 | 0.00 | 0.00 | 92 | 1003.6 |
| 20260509124557 | 51 | 136 | 2.0 | 7.0 | 0.00 | 0.00 | 0.00 | 95 | 1003.8 |
| 20260509123057 | 51 | 165 | 0.0 | 7.0 | 0.00 | 0.00 | 0.00 | 95 | 1004.0 |
| 20260509121557 | 50 | 155 | 1.0 | 10.0 | 0.00 | 0.00 | 0.00 | 95 | 1004.4 |
| 20260509120101 | 49 | 195 | 4.0 | 11.0 | 0.00 | 0.00 | 0.00 | 95 | 1004.5 |
| 20260509114557 | 49 | 173 | 3.0 | 9.0 | 0.00 | 0.00 | 0.00 | 95 | 1004.3 |
| 20260509113106 | 49 | 168 | 2.0 | 10.0 | 0.00 | 0.00 | 0.00 | 95 | 1004.4 |
| 20260509111604 | 49 | 151 | 1.0 | 6.0 | 0.00 | 0.00 | 0.00 | 95 | 1004.2 |
| 20260509110057 | 48 | 164 | 1.0 | 5.0 | 0.00 | 0.00 | 0.00 | 95 | 1004.0 |
| 20260509104558 | 48 | 147 | 3.0 | 9.0 | 0.00 | 0.00 | 0.00 | 95 | 1004.2 |
| 20260509103104 | 48 | 166 | 2.0 | 7.0 | 0.00 | 0.00 | 0.00 | 95 | 1004.2 |
| 20260509101558 | 48 | 173 | 2.0 | 5.0 | 0.00 | 0.00 | 0.00 | 95 | 1004.2 |
| 20260509100058 | 48 | 152 | 1.0 | 10.0 | 0.00 | 0.00 | 0.00 | 95 | 1004.2 |
| 20260509094558 | 48 | 174 | 2.0 | 8.0 | 0.00 | 0.00 | 0.00 | 95 | 1004.5 |
| 20260509093058 | 48 | 148 | 1.0 | 5.0 | 0.00 | 0.00 | 0.00 | 95 | 1004.6 |
| 20260509091607 | 48 | 182 | 1.0 | 8.0 | 0.00 | 0.00 | 0.00 | 95 | 1004.7 |
| 20260509090058 | 47 | 110 | 0.0 | 3.0 | 0.00 | 0.00 | 0.00 | 94 | 1004.6 |
| 20260509084558 | 47 | 110 | 0.0 | 3.0 | 0.00 | 0.00 | 0.00 | 94 | 1004.6 |
| 20260509083058 | 46 | 110 | 0.0 | 2.0 | 0.00 | 0.00 | 0.00 | 94 | 1004.7 |
| 20260509081603 | 45 | 110 | 0.0 | 3.0 | 0.00 | 0.00 | 0.00 | 94 | 1004.6 |
| 20260509080106 | 45 | 110 | 0.0 | 0.0 | 0.00 | 0.00 | 0.00 | 93 | 1004.8 |
| 20260509074558 | 45 | 110 | 0.0 | 2.0 | 0.00 | 0.00 | 0.00 | 93 | 1004.8 |
| 20260509073058 | 45 | 110 | 0.0 | 2.0 | 0.00 | 0.00 | 0.00 | 92 | 1004.8 |
| 20260509071600 | 45 | 110 | 0.0 | 2.0 | 0.00 | 0.00 | 0.00 | 92 | 1005.0 |
| 20260509070105 | 46 | 110 | 0.0 | 0.0 | 0.00 | 0.00 | 0.00 | 91 | 1005.2 |
| 20260509064558 | 46 | 110 | 0.0 | 2.0 | 0.00 | 0.00 | 0.00 | 91 | 1005.4 |
| 20260509063059 | 46 | 110 | 0.0 | 2.0 | 0.00 | 0.00 | 0.00 | 90 | 1005.4 |
| 20260509061615 | 46 | 110 | 0.0 | 2.0 | 0.00 | 0.00 | 0.00 | 90 | 1005.6 |
| 20260509060138 | 46 | 110 | 0.0 | 1.0 | 0.00 | 0.00 | 0.00 | 89 | 1005.9 |
| 20260509054603 | 46 | 110 | 0.0 | 3.0 | 0.00 | 0.01 | 0.00 | 88 | 1005.9 |
| 20260509053059 | 47 | 110 | 0.0 | 4.0 | 0.00 | 0.01 | 0.00 | 87 | 1006.1 |
| 20260509051600 | 47 | 174 | 0.0 | 2.0 | 0.00 | 0.01 | 0.00 | 87 | 1006.2 |
| 20260509050136 | 47 | 174 | 1.0 | 3.0 | 0.00 | 0.01 | 0.00 | 86 | 1006.3 |
| 20260509044603 | 47 | 189 | 1.0 | 5.0 | 0.00 | 0.01 | 0.00 | 86 | 1006.5 |
| 20260509043059 | 48 | 84 | 0.0 | 4.0 | 0.00 | 0.01 | 0.00 | 85 | 1006.5 |
| 20260509041559 | 48 | 84 | 1.0 | 4.0 | 0.00 | 0.01 | 0.00 | 84 | 1006.7 |
| 20260509034559 | 49 | 178 | 2.0 | 6.0 | 0.00 | 0.01 | 0.01 | 82 | 1007.1 |
| 20260509033100 | 49 | 125 | 0.0 | 6.0 | 0.00 | 0.01 | 0.01 | 81 | 1007.1 |
| 20260509031559 | 50 | 101 | 1.0 | 6.0 | 0.00 | 0.01 | 0.01 | 80 | 1007.3 |
| 20260509030100 | 50 | 153 | 2.0 | 7.0 | 0.00 | 0.01 | 0.01 | 78 | 1007.5 |
| 20260509024601 | 50 | 161 | 0.0 | 12.0 | 0.00 | 0.01 | 0.01 | 78 | 1007.7 |
| 20260509023105 | 51 | 158 | 0.0 | 10.0 | 0.00 | 0.01 | 0.01 | 77 | 1007.6 |
| 20260509021600 | 51 | 143 | 2.0 | 12.0 | 0.00 | 0.01 | 0.01 | 75 | 1007.7 |
| 20260509020100 | 51 | 229 | 3.0 | 9.0 | 0.00 | 0.01 | 0.01 | 73 | 1007.6 |
| 20260509014600 | 51 | 91 | 0.0 | 3.0 | 0.00 | 0.01 | 0.01 | 69 | 1007.4 |
| 20260509013103 | 52 | 132 | 1.0 | 3.0 | 0.00 | 0.01 | 0.01 | 66 | 1007.3 |
| 20260509011600 | 53 | 80 | 1.0 | 6.0 | 0.00 | 0.01 | 0.01 | 63 | 1007.2 |
| 20260509004601 | 54 | 117 | 1.0 | 4.0 | 0.00 | 0.01 | 0.01 | 61 | 1006.9 |
| 20260509003106 | 55 | 71 | 0.0 | 3.0 | 0.00 | 0.01 | 0.01 | 59 | 1006.8 |
| 20260509001600 | 56 | 181 | 0.0 | 8.0 | 0.00 | 0.01 | 0.01 | 57 | 1006.7 |
| 20260509000115 | 57 | 75 | 3.0 | 8.0 | 0.00 | 0.01 | 0.01 | 56 | 1006.7 |
| 20260508234601 | 57 | 92 | 1.0 | 7.0 | 0.00 | 0.01 | 0.01 | 56 | 1006.8 |
| 20260508233104 | 58 | 137 | 1.0 | 7.0 | 0.00 | 0.01 | 0.01 | 55 | 1006.7 |
| 20260508231600 | 58 | 85 | 1.0 | 9.0 | 0.00 | 0.01 | 0.01 | 54 | 1006.6 |
| 20260508230108 | 58 | 96 | 1.0 | 6.0 | 0.00 | 0.01 | 0.01 | 53 | 1006.6 |
| 20260508224600 | 57 | 34 | 1.0 | 4.0 | 0.00 | 0.01 | 0.01 | 47 | 1006.7 |
| 20260508223100 | 57 | 336 | 1.0 | 5.0 | 0.00 | 0.01 | 0.01 | 42 | 1006.8 |
| 20260508221606 | 59 | 349 | 2.0 | 4.0 | 0.00 | 0.01 | 0.01 | 38 | 1007.1 |
| 20260508220100 | 58 | 350 | 1.0 | 5.0 | 0.00 | 0.01 | 0.01 | 41 | 1007.1 |
| 20260508214501 | 57 | 356 | 0.0 | 5.0 | 0.00 | 0.01 | 0.01 | 44 | 1007.2 |
| 20260508213003 | 57 | 335 | 0.0 | 4.0 | 0.00 | 0.01 | 0.01 | 38 | 1007.2 |
| 20260508211505 | 58 | 73 | 1.0 | 10.0 | 0.00 | 0.01 | 0.01 | 39 | 1007.2 |
| 20260508210006 | 59 | 349 | 2.0 | 5.0 | 0.00 | 0.01 | 0.01 | 39 | 1007.3 |
| 20260508204502 | 58 | 20 | 0.0 | 4.0 | 0.00 | 0.01 | 0.01 | 37 | 1007.6 |
| 20260508203003 | 58 | 322 | 2.0 | 5.0 | 0.00 | 0.01 | 0.01 | 32 | 1007.9 |
| 20260508201501 | 58 | 297 | 2.0 | 5.0 | 0.00 | 0.01 | 0.01 | 36 | 1008.1 |
| 20260508200003 | 58 | 24 | 2.0 | 6.0 | 0.00 | 0.01 | 0.01 | 35 | 1008.3 |
| 20260508194502 | 58 | 359 | 2.0 | 6.0 | 0.00 | 0.01 | 0.01 | 35 | 1008.5 |
| 20260508193002 | 58 | 312 | 3.0 | 6.0 | 0.00 | 0.01 | 0.01 | 36 | 1008.7 |
| 20260508191501 | 57 | 358 | 2.0 | 8.0 | 0.00 | 0.01 | 0.01 | 36 | 1009.0 |
| 20260508190005 | 57 | 360 | 3.0 | 0.0 | 8.22 | 0.00 | 0.01 | 35 | 1009.1 |
| 20260508184505 | 58 | 322 | 2.0 | 5.0 | 0.00 | 0.01 | 0.01 | 39 | 1009.3 |
| 20260508183002 | 57 | 321 | 2.0 | 6.0 | 0.00 | 0.01 | 0.01 | 43 | 1009.5 |
| 20260508181502 | 57 | 306 | 1.0 | 5.0 | 0.00 | 0.01 | 0.01 | 45 | 1009.9 |
| 20260508180002 | 56 | 328 | 3.0 | 6.0 | 0.00 | 0.01 | 0.01 | 46 | 1010.2 |
| 20260508174502 | 55 | 352 | 2.0 | 7.0 | 0.00 | 0.01 | 0.01 | 50 | 1010.3 |
| 20260508173005 | 54 | 321 | 3.0 | 6.0 | 0.00 | 0.01 | 0.01 | 53 | 1010.6 |
| 20260508171505 | 54 | 302 | 2.0 | 7.0 | 0.00 | 0.01 | 0.01 | 58 | 1010.7 |
| 20260508170003 | 55 | 278 | 2.0 | 6.0 | 0.00 | 0.01 | 0.01 | 52 | 1010.9 |
| 20260508164502 | 54 | 338 | 3.0 | 6.0 | 0.00 | 0.01 | 0.01 | 54 | 1010.9 |
| 20260508163003 | 53 | 322 | 1.0 | 6.0 | 0.00 | 0.01 | 0.01 | 49 | 1010.9 |
| 20260508161503 | 53 | 276 | 1.0 | 4.0 | 0.00 | 0.01 | 0.01 | 55 | 1011.1 |
| 20260508160003 | 52 | 276 | 0.0 | 4.0 | 0.00 | 0.01 | 0.01 | 62 | 1011.3 |
| 20260508154503 | 52 | 276 | 0.0 | 4.0 | 0.00 | 0.01 | 0.01 | 63 | 1011.2 |
| 20260508153003 | 51 | 278 | 1.0 | 5.0 | 0.00 | 0.01 | 0.01 | 66 | 1011.2 |
| 20260508151502 | 51 | 304 | 1.0 | 3.0 | 0.00 | 0.01 | 0.01 | 63 | 1011.2 |
| 20260508150007 | 51 | 304 | 0.0 | 3.0 | 0.00 | 0.01 | 0.01 | 64 | 1011.3 |
| 20260508144503 | 50 | 296 | 1.0 | 4.0 | 0.00 | 0.01 | 0.01 | 64 | 1011.4 |
| 20260508143005 | 49 | 297 | 1.0 | 4.0 | 0.00 | 0.01 | 0.01 | 63 | 1011.5 |
| 20260508141503 | 49 | 269 | 0.0 | 3.0 | 0.00 | 0.01 | 0.01 | 65 | 1011.5 |
| 20260508140003 | 49 | 235 | 1.0 | 4.0 | 0.00 | 0.01 | 0.01 | 70 | 1011.6 |
| 20260508134502 | 49 | 287 | 0.0 | 3.0 | 0.00 | 0.01 | 0.01 | 70 | 1011.6 |
| 20260508133002 | 49 | 269 | 1.0 | 4.0 | 0.00 | 0.01 | 0.01 | 69 | 1011.6 |